Location: Asheville, NC
(35.6000°N, 82.5500°W)
Time: 06:33:06
(UTC-05:00)

Vanguard 2 Rocket - Pass Details

Date: 15 February 2018
Orbit: 555 x 3327 km, 32.9° (Epoch: 24 February)

Event Time Altitude Azimuth Distance (km) Brightness Sun altitude
Exits shadow 05:04:08 37° 270° (W) 4,423 9.7 -27.6°
Maximum altitude 05:14:49 71° 199° (SSW) 3,283 9.5 -25.4°
Drops below altitude 10° 05:31:02 10° 119° (ESE) 5,060 11.5 -22.1°
Sets 05:34:18 0° 117° (ESE) 5,766 12.1 -21.5°
